QPF
0.06 0.06 0.05 0.04 0.02 0.01 0.01 0.00 0.01 0.01 0.00 0.00 0.00 0.01 0.02 0.02 0.04 0.05 0.05 0.08 0.04 0.04 0.05 0.04 0.04 0.03 0.02 0.03 0.03 0.03 0.02 0.02 0.02 0.02 0.02 0.03 0.04 0.04 0.04 0.05 0.06 0.09 0.09
0.06 0.05 0.05 0.04 0.02 0.01 0.01 0.01 0.01 0.00 0.00 0.01 0.01 0.01 0.02 0.03 0.05 0.05 0.04 0.03 0.02 0.03 0.04 0.04 0.03 0.02 0.02 0.02 0.02 0.02 0.02 0.02 0.02 0.02 0.03 0.04 0.06 0.06 0.04 0.04 0.05 0.09 0.11
0.05 0.05 0.04 0.03 0.02 0.02 0.01 0.00 0.00 0.01 0.01 0.01 0.01 0.02 0.02 0.02 0.02 0.03 0.03 0.04 0.04 0.04 0.04 0.04 0.04 0.03 0.03 0.02 0.02 0.02 0.02 0.03 0.03 0.02 0.03 0.03 0.04 0.05 0.06 0.06 0.06 0.08 0.13
0.05 0.07 0.05 0.03 0.03 0.02 0.01 0.01 0.01 0.01 0.02 0.02 0.03 0.05 0.04 0.02 0.02 0.02 0.02 0.03 0.04 0.03 0.03 0.04 0.05 0.04 0.03 0.02 0.03 0.03 0.03 0.04 0.04 0.03 0.03 0.05 0.04 0.04 0.05 0.06 0.07 0.09 0.09
0.03 0.04 0.04 0.05 0.05 0.04 0.02 0.02 0.01 0.01 0.02 0.03 0.03 0.04 0.03 0.02 0.02 0.02 0.02 0.02 0.02 0.02 0.03 0.04 0.04 0.04 0.03 0.03 0.03 0.03 0.03 0.03 0.04 0.06 0.06 0.05 0.04 0.04 0.04 0.03 0.03 0.05 0.07
0.03 0.03 0.05 0.06 0.04 0.02 0.02 0.02 0.01 0.01 0.02 0.02 0.03 0.04 0.04 0.03 0.02 0.02 0.02 0.02 0.02 0.03 0.04 0.03 0.02 0.01 0.01 0.02 0.02 0.04 0.04 0.04 0.05 0.06 0.05 0.05 0.04 0.05 0.05 0.03 0.03 0.03 0.03
0.02 0.02 0.02 0.02 0.01 0.01 0.01 0.01 0.01 0.01 0.02 0.03 0.04 0.04 0.04 0.03 0.02 0.02 0.03 0.02 0.02 0.02 0.03 0.02 0.02 0.01 0.01 0.02 0.03 0.04 0.04 0.06 0.07 0.06 0.04 0.05 0.06 0.06 0.06 0.06 0.04 0.04 0.03
0.01 0.01 0.01 0.01 0.01 0.01 0.00 0.01 0.01 0.02 0.03 0.04 0.05 0.05 0.04 0.04 0.03 0.02 0.03 0.02 0.01 0.02 0.02 0.02 0.02 0.01 0.01 0.02 0.03 0.03 0.03 0.04 0.04 0.03 0.02 0.03 0.04 0.05 0.05 0.08 0.07 0.05 0.03
0.01 0.00 0.00 0.01 0.00 0.00 0.01 0.01 0.01 0.02 0.02 0.03 0.04 0.05 0.04 0.04 0.03 0.02 0.02 0.02 0.01 0.02 0.02 0.02 0.02 0.02 0.02 0.02 0.02 0.01 0.02 0.03 0.03 0.02 0.02 0.03 0.03 0.03 0.04 0.07 0.06 0.06 0.05
0.01 0.00 0.00 0.00 0.00 0.00 0.01 0.01 0.01 0.01 0.01 0.02 0.02 0.03 0.03 0.03 0.03 0.02 0.03 0.03 0.03 0.03 0.03 0.02 0.02 0.02 0.02 0.03 0.02 0.01 0.01 0.02 0.02 0.02 0.02 0.02 0.02 0.02 0.04 0.04 0.05 0.06 0.06
0.01 0.01 0.00 0.00 0.00 0.00 0.00 0.00 0.00 0.01 0.01 0.01 0.01 0.02 0.02 0.02 0.03 0.03 0.04 0.04 0.03 0.02 0.02 0.02 0.02 0.02 0.04 0.03 0.01 0.01 0.01 0.02 0.02 0.02 0.01 0.01 0.02 0.01 0.02 0.03 0.02 0.04 0.07
0.01 0.01 0.01 0.01 0.00 0.01 0.01 0.00 0.00 0.00 0.01 0.01 0.01 0.01 0.02 0.02 0.02 0.04 0.04 0.03 0.03 0.03 0.02 0.01 0.01 0.02 0.04 0.03 0.02 0.01 0.01 0.01 0.01 0.01 0.01 0.01 0.01 0.01 0.01 0.02 0.02 0.03 0.05
0.02 0.01 0.01 0.01 0.01 0.00 0.00 0.00 0.00 0.00 0.00 0.01 0.01 0.03 0.03 0.04 0.04 0.05 0.05 0.05 0.05 0.04 0.03 0.03 0.02 0.02 0.03 0.03 0.02 0.02 0.01 0.01 0.01 0.01 0.01 0.01 0.01 0.02 0.02 0.02 0.02 0.03 0.03
0.02 0.01 0.02 0.02 0.03 0.01 0.01 0.01 0.00 0.00 0.01 0.01 0.02 0.03 0.05 0.05 0.05 0.06 0.06 0.07 0.08 0.08 0.07 0.05 0.04 0.04 0.03 0.02 0.02 0.02 0.02 0.01 0.01 0.02 0.02 0.02 0.01 0.02 0.02 0.02 0.03 0.04 0.04
0.01 0.01 0.01 0.03 0.04 0.05 0.03 0.01 0.01 0.01 0.02 0.03 0.03 0.03 0.03 0.03 0.03 0.03 0.05 0.07 0.09 0.09 0.10 0.08 0.06 0.06 0.04 0.02 0.01 0.01 0.01 0.01 0.01 0.01 0.01 0.01 0.01 0.01 0.01 0.02 0.02 0.05 0.05
0.01 0.01 0.01 0.03 0.04 0.05 0.06 0.04 0.03 0.03 0.04 0.05 0.04 0.04 0.03 0.02 0.01 0.02 0.02 0.04 0.05 0.07 0.08 0.08 0.05 0.04 0.03 0.02 0.02 0.02 0.01 0.01 0.01 0.01 0.01 0.01 0.01 0.01 0.02 0.02 0.03 0.03 0.04
0.03 0.02 0.03 0.03 0.04 0.05 0.06 0.06 0.07 0.07 0.06 0.04 0.03 0.03 0.02 0.02 0.02 0.02 0.02 0.02 0.02 0.03 0.04 0.04 0.03 0.02 0.02 0.03 0.02 0.02 0.02 0.01 0.01 0.01 0.01 0.01 0.00 0.01 0.02 0.02 0.02 0.01 0.02
0.04 0.05 0.06 0.05 0.05 0.07 0.07 0.06 0.06 0.05 0.04 0.04 0.03 0.03 0.03 0.03 0.03 0.03 0.02 0.02 0.01 0.01 0.01 0.01 0.01 0.01 0.01 0.03 0.02 0.03 0.03 0.01 0.01 0.01 0.00 0.00 0.00 0.01 0.01 0.01 0.01 0.01 0.01
0.07 0.07 0.07 0.05 0.05 0.08 0.10 0.09 0.06 0.06 0.05 0.05 0.04 0.05 0.06 0.07 0.07 0.05 0.04 0.04 0.02 0.01 0.01 0.01 0.01 0.01 0.02 0.03 0.03 0.03 0.03 0.02 0.01 0.00 0.00 0.00 0.00 0.01 0.01 0.01 0.00 0.01 0.01
0.04 0.05 0.12 0.11 0.06 0.04 0.05 0.05 0.06 0.07 0.07 0.06 0.07 0.07 0.05 0.04 0.04 0.05 0.04 0.04 0.03 0.02 0.02 0.02 0.01 0.02 0.02 0.03 0.03 0.03 0.02 0.01 0.01 0.00 0.00 0.00 0.00 0.01 0.01 0.00 0.00 0.00 0.01
0.04 0.04 0.05 0.08 0.06 0.06 0.05 0.05 0.04 0.04 0.08 0.08 0.07 0.06 0.05 0.03 0.03 0.04 0.03 0.03 0.03 0.03 0.02 0.02 0.02 0.02 0.02 0.03 0.03 0.02 0.01 0.00 0.00 0.00 0.00 0.00 0.00 0.01 0.01 0.00 0.00 0.00 0.01
0.07 0.05 0.04 0.04 0.06 0.09 0.10 0.08 0.06 0.03 0.04 0.04 0.05 0.05 0.05 0.04 0.04 0.04 0.04 0.04 0.03 0.03 0.02 0.02 0.02 0.02 0.03 0.03 0.03 0.02 0.01 0.01 0.00 0.00 0.00 0.00 0.00 0.00 0.00 0.00 0.00 0.00 0.01
0.07 0.05 0.04 0.05 0.13 0.16 0.14 0.10 0.06 0.04 0.04 0.05 0.05 0.06 0.08 0.07 0.07 0.09 0.10 0.09 0.07 0.05 0.03 0.03 0.01 0.01 0.02 0.02 0.03 0.03 0.03 0.03 0.02 0.01 0.00 0.00 0.00 0.00 0.00 0.00 0.01 0.01 0.01
0.03 0.06 0.06 0.05 0.17 0.24 0.17 0.12 0.08 0.07 0.06 0.06 0.06 0.06 0.07 0.09 0.09 0.10 0.10 0.10 0.11 0.11 0.09 0.05 0.03 0.03 0.03 0.03 0.04 0.04 0.03 0.03 0.02 0.01 0.01 0.01 0.00 0.00 0.00 0.01 0.01 0.01 0.02
0.05 0.04 0.07 0.04 0.06 0.14 0.17 0.12 0.10 0.11 0.10 0.10 0.09 0.07 0.06 0.06 0.06 0.06 0.05 0.06 0.08 0.09 0.09 0.08 0.07 0.07 0.07 0.06 0.06 0.05 0.03 0.03 0.04 0.04 0.03 0.01 0.01 0.01 0.01 0.01 0.01 0.01 0.02
0.03 0.03 0.03 0.03 0.04 0.04 0.06 0.07 0.05 0.05 0.06 0.06 0.06 0.05 0.04 0.03 0.06 0.09 0.08 0.07 0.07 0.08 0.08 0.08 0.07 0.06 0.06 0.06 0.05 0.04 0.04 0.04 0.05 0.05 0.04 0.03 0.03 0.02 0.03 0.04 0.02 0.01 0.01
MSLP
1011.19 1011.41 1011.59 1011.70 1011.75 1011.79 1011.85 1011.96 1012.16 1012.45 1012.79 1013.16 1013.51 1013.79 1013.98 1014.06 1014.06 1013.99 1013.90 1013.82 1013.78 1013.80 1013.86 1013.96 1014.08 1014.21 1014.34 1014.48 1014.64 1014.84 1015.09 1015.41 1015.79 1016.20 1016.62 1017.02 1017.35 1017.60 1017.74 1017.80 1017.78 1017.71 1017.62
1011.03 1011.31 1011.52 1011.64 1011.69 1011.70 1011.73 1011.82 1012.01 1012.30 1012.68 1013.08 1013.46 1013.77 1013.96 1014.02 1013.97 1013.85 1013.71 1013.61 1013.57 1013.61 1013.72 1013.89 1014.09 1014.28 1014.45 1014.60 1014.73 1014.89 1015.09 1015.36 1015.71 1016.13 1016.59 1017.06 1017.49 1017.85 1018.12 1018.28 1018.35 1018.35 1018.31
1010.68 1011.02 1011.29 1011.46 1011.52 1011.53 1011.54 1011.62 1011.81 1012.11 1012.51 1012.94 1013.36 1013.68 1013.88 1013.93 1013.86 1013.72 1013.56 1013.44 1013.41 1013.48 1013.64 1013.88 1014.13 1014.37 1014.56 1014.70 1014.80 1014.89 1015.02 1015.22 1015.53 1015.93 1016.41 1016.93 1017.46 1017.94 1018.33 1018.63 1018.81 1018.91 1018.93
1010.08 1010.50 1010.85 1011.07 1011.18 1011.22 1011.24 1011.32 1011.50 1011.82 1012.23 1012.69 1013.14 1013.49 1013.71 1013.78 1013.71 1013.57 1013.40 1013.29 1013.27 1013.38 1013.59 1013.87 1014.18 1014.45 1014.65 1014.78 1014.84 1014.88 1014.94 1015.07 1015.31 1015.68 1016.15 1016.72 1017.32 1017.90 1018.42 1018.84 1019.14 1019.34 1019.44
1009.27 1009.76 1010.18 1010.49 1010.66 1010.74 1010.79 1010.88 1011.07 1011.40 1011.83 1012.31 1012.79 1013.18 1013.44 1013.54 1013.50 1013.38 1013.24 1013.14 1013.15 1013.29 1013.54 1013.86 1014.21 1014.52 1014.74 1014.87 1014.91 1014.90 1014.90 1014.97 1015.15 1015.47 1015.93 1016.50 1017.14 1017.79 1018.40 1018.92 1019.34 1019.63 1019.82
1008.30 1008.85 1009.35 1009.73 1009.98 1010.11 1010.20 1010.31 1010.52 1010.85 1011.30 1011.81 1012.32 1012.76 1013.07 1013.22 1013.23 1013.15 1013.05 1012.99 1013.03 1013.19 1013.47 1013.84 1014.22 1014.56 1014.82 1014.97 1015.02 1015.00 1014.96 1014.99 1015.11 1015.38 1015.80 1016.35 1016.98 1017.66 1018.32 1018.91 1019.40 1019.78 1020.04
1007.28 1007.87 1008.44 1008.89 1009.20 1009.39 1009.51 1009.65 1009.87 1010.21 1010.67 1011.21 1011.76 1012.25 1012.62 1012.84 1012.92 1012.91 1012.85 1012.84 1012.91 1013.10 1013.41 1013.80 1014.22 1014.60 1014.90 1015.09 1015.17 1015.17 1015.14 1015.14 1015.23 1015.45 1015.81 1016.30 1016.90 1017.55 1018.22 1018.83 1019.37 1019.80 1020.12
1006.33 1006.95 1007.55 1008.05 1008.41 1008.64 1008.79 1008.94 1009.17 1009.52 1009.99 1010.55 1011.13 1011.68 1012.12 1012.42 1012.58 1012.64 1012.66 1012.69 1012.80 1013.02 1013.34 1013.76 1014.20 1014.63 1014.98 1015.23 1015.37 1015.42 1015.41 1015.42 1015.49 1015.66 1015.96 1016.38 1016.90 1017.50 1018.12 1018.72 1019.27 1019.73 1020.10
1005.57 1006.18 1006.80 1007.32 1007.69 1007.93 1008.10 1008.25 1008.47 1008.82 1009.29 1009.86 1010.48 1011.07 1011.58 1011.97 1012.22 1012.37 1012.46 1012.55 1012.70 1012.94 1013.29 1013.72 1014.19 1014.65 1015.06 1015.38 1015.59 1015.70 1015.75 1015.79 1015.85 1015.99 1016.22 1016.56 1017.00 1017.51 1018.06 1018.62 1019.15 1019.63 1020.03
1005.07 1005.66 1006.26 1006.76 1007.12 1007.34 1007.48 1007.62 1007.82 1008.14 1008.60 1009.17 1009.81 1010.45 1011.02 1011.49 1011.83 1012.07 1012.24 1012.40 1012.59 1012.87 1013.23 1013.67 1014.17 1014.67 1015.12 1015.51 1015.79 1015.99 1016.11 1016.18 1016.26 1016.37 1016.56 1016.82 1017.16 1017.58 1018.06 1018.56 1019.07 1019.55 1019.98
1004.89 1005.44 1005.98 1006.42 1006.72 1006.89 1006.98 1007.07 1007.23 1007.51 1007.94 1008.49 1009.13 1009.79 1010.41 1010.95 1011.38 1011.71 1011.97 1012.20 1012.45 1012.76 1013.15 1013.61 1014.13 1014.65 1015.16 1015.60 1015.96 1016.23 1016.42 1016.55 1016.66 1016.77 1016.92 1017.12 1017.39 1017.73 1018.13 1018.58 1019.06 1019.54 1020.00
1005.03 1005.50 1005.95 1006.29 1006.50 1006.58 1006.60 1006.62 1006.72 1006.94 1007.31 1007.83 1008.44 1009.10 1009.74 1010.33 1010.83 1011.25 1011.60 1011.91 1012.24 1012.60 1013.03 1013.52 1014.05 1014.61 1015.14 1015.64 1016.06 1016.40 1016.66 1016.85 1017.00 1017.13 1017.27 1017.43 1017.65 1017.93 1018.27 1018.68 1019.13 1019.62 1020.10
1005.45 1005.81 1006.13 1006.35 1006.43 1006.42 1006.34 1006.27 1006.29 1006.44 1006.73 1007.18 1007.74 1008.36 1009.01 1009.62 1010.18 1010.67 1011.10 1011.51 1011.92 1012.35 1012.83 1013.36 1013.92 1014.50 1015.07 1015.61 1016.08 1016.49 1016.81 1017.07 1017.27 1017.43 1017.58 1017.74 1017.93 1018.18 1018.48 1018.86 1019.29 1019.77 1020.27
1006.07 1006.30 1006.48 1006.54 1006.50 1006.36 1006.19 1006.03 1005.96 1006.01 1006.22 1006.57 1007.05 1007.61 1008.22 1008.82 1009.41 1009.96 1010.47 1010.97 1011.47 1011.99 1012.54 1013.12 1013.73 1014.34 1014.94 1015.51 1016.03 1016.49 1016.87 1017.19 1017.45 1017.66 1017.85 1018.03 1018.22 1018.45 1018.74 1019.09 1019.50 1019.97 1020.47
1006.80 1006.89 1006.91 1006.83 1006.65 1006.41 1006.14 1005.90 1005.74 1005.71 1005.81 1006.05 1006.42 1006.88 1007.41 1007.98 1008.56 1009.14 1009.72 1010.30 1010.90 1011.51 1012.14 1012.79 1013.45 1014.11 1014.74 1015.34 1015.90 1016.40 1016.85 1017.23 1017.55 1017.83 1018.07 1018.28 1018.50 1018.73 1019.01 1019.33 1019.71 1020.15 1020.63
1007.54 1007.49 1007.36 1007.15 1006.86 1006.53 1006.19 1005.89 1005.66 1005.53 1005.53 1005.65 1005.88 1006.22 1006.64 1007.14 1007.68 1008.27 1008.89 1009.54 1010.22 1010.93 1011.65 1012.37 1013.10 1013.80 1014.47 1015.10 1015.70 1016.24 1016.74 1017.18 1017.58 1017.92 1018.22 1018.49 1018.74 1018.99 1019.25 1019.55 1019.89 1020.28 1020.71
1008.18 1008.00 1007.76 1007.45 1007.09 1006.72 1006.34 1006.00 1005.72 1005.52 1005.41 1005.40 1005.50 1005.69 1005.98 1006.37 1006.84 1007.40 1008.04 1008.74 1009.49 1010.27 1011.08 1011.88 1012.66 1013.40 1014.12 1014.78 1015.41 1016.00 1016.55 1017.06 1017.52 1017.94 1018.31 1018.64 1018.93 1019.19 1019.45 1019.71 1020.00 1020.32 1020.68
1008.65 1008.38 1008.05 1007.70 1007.32 1006.94 1006.57 1006.23 1005.93 1005.67 1005.47 1005.34 1005.28 1005.32 1005.46 1005.72 1006.10 1006.60 1007.22 1007.94 1008.73 1009.58 1010.45 1011.31 1012.14 1012.93 1013.68 1014.38 1015.04 1015.67 1016.27 1016.84 1017.37 1017.87 1018.32 1018.71 1019.04 1019.32 1019.57 1019.79 1020.02 1020.27 1020.54
1008.90 1008.57 1008.22 1007.87 1007.52 1007.18 1006.85 1006.54 1006.23 1005.94 1005.67 1005.42 1005.23 1005.12 1005.11 1005.23 1005.50 1005.92 1006.50 1007.20 1008.01 1008.89 1009.79 1010.69 1011.56 1012.39 1013.16 1013.89 1014.58 1015.24 1015.89 1016.52 1017.13 1017.70 1018.22 1018.68 1019.06 1019.37 1019.61 1019.80 1019.97 1020.13 1020.32
1008.92 1008.59 1008.26 1007.95 1007.67 1007.40 1007.14 1006.87 1006.59 1006.28 1005.95 1005.62 1005.31 1005.06 1004.91 1004.90 1005.05 1005.39 1005.90 1006.57 1007.36 1008.23 1009.15 1010.06 1010.94 1011.78 1012.57 1013.31 1014.03 1014.73 1015.42 1016.11 1016.79 1017.43 1018.02 1018.55 1018.98 1019.32 1019.56 1019.73 1019.85 1019.96 1020.07
1008.74 1008.45 1008.18 1007.95 1007.75 1007.57 1007.39 1007.19 1006.93 1006.62 1006.25 1005.85 1005.45 1005.09 1004.82 1004.70 1004.75 1005.00 1005.44 1006.05 1006.80 1007.64 1008.53 1009.43 1010.30 1011.14 1011.92 1012.68 1013.41 1014.14 1014.87 1015.61 1016.35 1017.06 1017.73 1018.32 1018.80 1019.18 1019.44 1019.61 1019.70 1019.76 1019.82
1008.43 1008.20 1008.02 1007.88 1007.77 1007.68 1007.57 1007.42 1007.19 1006.88 1006.50 1006.05 1005.59 1005.16 1004.81 1004.60 1004.58 1004.74 1005.11 1005.66 1006.35 1007.14 1007.98 1008.84 1009.68 1010.49 1011.26 1012.00 1012.74 1013.49 1014.25 1015.04 1015.83 1016.61 1017.34 1017.99 1018.53 1018.95 1019.25 1019.43 1019.52 1019.56 1019.59
1008.06 1007.92 1007.82 1007.76 1007.73 1007.71 1007.65 1007.54 1007.33 1007.03 1006.63 1006.17 1005.68 1005.22 1004.83 1004.58 1004.50 1004.61 1004.92 1005.40 1006.02 1006.74 1007.52 1008.31 1009.10 1009.86 1010.60 1011.33 1012.06 1012.82 1013.61 1014.43 1015.26 1016.08 1016.86 1017.57 1018.17 1018.64 1018.97 1019.18 1019.30 1019.36 1019.39
1007.71 1007.64 1007.61 1007.61 1007.63 1007.65 1007.62 1007.52 1007.32 1007.03 1006.64 1006.19 1005.71 1005.25 1004.87 1004.61 1004.51 1004.59 1004.84 1005.26 1005.81 1006.45 1007.14 1007.86 1008.57 1009.28 1009.97 1010.67 1011.39 1012.15 1012.95 1013.79 1014.65 1015.51 1016.33 1017.07 1017.71 1018.23 1018.61 1018.86 1019.02 1019.11 1019.17
1007.39 1007.37 1007.38 1007.42 1007.46 1007.48 1007.45 1007.35 1007.16 1006.88 1006.51 1006.09 1005.65 1005.24 1004.89 1004.66 1004.58 1004.65 1004.87 1005.23 1005.70 1006.26 1006.86 1007.48 1008.11 1008.75 1009.39 1010.05 1010.75 1011.50 1012.30 1013.15 1014.02 1014.89 1015.73 1016.50 1017.16 1017.71 1018.13 1018.43 1018.64 1018.78 1018.89
1007.10 1007.11 1007.14 1007.17 1007.20 1007.20 1007.15 1007.04 1006.85 1006.58 1006.25 1005.88 1005.52 1005.18 1004.91 1004.74 1004.69 1004.76 1004.97 1005.28 1005.67 1006.14 1006.64 1007.17 1007.71 1008.27 1008.85 1009.47 1010.14 1010.87 1011.66 1012.50 1013.37 1014.24 1015.08 1015.85 1016.52 1017.09 1017.54 1017.88 1018.13 1018.33 1018.50
Thickness
5829 5830 5828 5826 5822 5818 5815 5812 5809 5807 5805 5801 5797 5793 5790 5790 5789 5789 5787 5785 5784 5781 5779 5777 5774 5773 5771 5769 5767 5765 5763 5761 5762 5758 5755 5757 5760 5760 5760 5759 5758 5756 5756
5826 5826 5825 5824 5821 5817 5815 5812 5809 5807 5806 5803 5800 5797 5793 5790 5789 5788 5787 5785 5783 5782 5780 5776 5775 5773 5770 5768 5766 5764 5761 5759 5760 5754 5749 5745 5748 5753 5757 5756 5755 5753 5752
5826 5825 5823 5822 5820 5818 5816 5814 5810 5808 5806 5804 5800 5796 5792 5789 5786 5784 5783 5784 5782 5781 5779 5777 5775 5773 5771 5767 5765 5764 5761 5756 5757 5756 5750 5741 5737 5742 5749 5751 5751 5749 5748
5830 5827 5824 5821 5820 5819 5817 5814 5811 5808 5806 5804 5800 5794 5788 5784 5784 5784 5783 5782 5781 5780 5779 5777 5775 5772 5770 5767 5765 5764 5761 5757 5753 5753 5753 5749 5745 5738 5737 5743 5746 5746 5744
5831 5828 5826 5824 5822 5820 5817 5813 5810 5807 5806 5803 5800 5794 5789 5787 5785 5784 5781 5780 5779 5779 5777 5776 5773 5771 5769 5767 5764 5763 5760 5757 5753 5750 5749 5747 5744 5742 5735 5732 5736 5738 5740
5832 5829 5827 5825 5821 5819 5816 5812 5808 5804 5804 5802 5799 5794 5789 5786 5783 5780 5778 5777 5776 5776 5776 5774 5772 5769 5767 5765 5763 5761 5758 5756 5753 5750 5747 5744 5740 5737 5734 5730 5729 5730 5733
5830 5827 5824 5821 5819 5816 5814 5810 5805 5802 5801 5799 5797 5794 5790 5786 5782 5779 5776 5774 5772 5772 5772 5772 5769 5767 5765 5763 5761 5758 5756 5754 5751 5748 5746 5744 5741 5740 5736 5730 5727 5726 5728
5829 5826 5825 5822 5819 5817 5813 5809 5804 5800 5799 5797 5794 5792 5789 5785 5782 5779 5776 5773 5771 5770 5769 5768 5766 5765 5763 5761 5758 5755 5752 5750 5748 5746 5744 5741 5739 5738 5735 5731 5725 5720 5720
5828 5826 5824 5821 5819 5816 5812 5808 5803 5800 5798 5795 5793 5789 5787 5784 5781 5778 5776 5772 5770 5768 5766 5765 5763 5761 5759 5757 5754 5750 5748 5746 5744 5742 5740 5738 5736 5735 5733 5731 5727 5719 5713
5824 5822 5821 5820 5819 5816 5813 5808 5804 5800 5797 5794 5791 5788 5784 5782 5779 5776 5772 5770 5767 5765 5763 5761 5759 5757 5755 5752 5750 5746 5744 5741 5739 5737 5735 5733 5732 5731 5729 5728 5725 5722 5715
5820 5818 5817 5817 5817 5814 5810 5805 5801 5797 5794 5791 5788 5785 5782 5779 5776 5772 5769 5767 5764 5762 5759 5757 5755 5752 5750 5747 5745 5742 5739 5736 5734 5733 5731 5729 5728 5725 5724 5723 5721 5718 5714
5818 5816 5815 5814 5811 5808 5805 5802 5799 5795 5792 5789 5785 5781 5778 5775 5771 5768 5766 5764 5761 5759 5756 5753 5751 5748 5745 5743 5740 5737 5735 5731 5729 5727 5725 5723 5723 5720 5719 5717 5715 5713 5711
5813 5812 5810 5808 5805 5803 5802 5799 5796 5792 5789 5785 5780 5776 5773 5770 5766 5764 5761 5759 5757 5754 5752 5749 5746 5743 5740 5738 5735 5732 5730 5727 5725 5722 5720 5718 5716 5713 5712 5710 5708 5707 5707
5807 5805 5802 5800 5799 5798 5797 5795 5792 5789 5784 5780 5775 5771 5768 5765 5763 5761 5758 5755 5752 5749 5746 5743 5740 5737 5735 5732 5730 5727 5725 5722 5720 5718 5715 5713 5711 5708 5706 5705 5702 5701 5698
5800 5798 5797 5795 5793 5790 5789 5788 5786 5784 5780 5775 5771 5767 5764 5762 5759 5756 5753 5750 5747 5745 5741 5737 5734 5731 5729 5728 5725 5723 5720 5716 5713 5711 5709 5708 5706 5705 5703 5701 5697 5694 5691
5795 5794 5793 5791 5788 5786 5783 5781 5780 5778 5776 5770 5765 5763 5759 5756 5754 5751 5748 5744 5741 5738 5735 5731 5728 5725 5724 5723 5721 5718 5714 5710 5707 5704 5703 5702 5700 5699 5697 5696 5693 5690 5686
5790 5789 5787 5785 5783 5782 5781 5776 5773 5771 5769 5765 5761 5757 5753 5750 5748 5746 5742 5738 5735 5732 5729 5725 5722 5719 5718 5717 5715 5713 5709 5705 5702 5699 5697 5696 5695 5692 5690 5689 5687 5685 5683
5786 5784 5781 5778 5777 5776 5773 5771 5768 5764 5761 5758 5755 5752 5749 5745 5742 5739 5735 5732 5729 5726 5723 5721 5717 5714 5713 5712 5710 5707 5703 5699 5697 5694 5692 5689 5687 5686 5684 5681 5679 5677 5676
5781 5780 5777 5775 5771 5769 5766 5762 5757 5755 5752 5750 5748 5746 5744 5740 5735 5731 5729 5727 5724 5720 5718 5716 5713 5710 5708 5707 5705 5702 5696 5693 5690 5688 5686 5684 5681 5680 5678 5675 5672 5670 5669
5774 5772 5770 5767 5763 5761 5759 5753 5748 5746 5744 5743 5742 5740 5738 5735 5731 5728 5725 5723 5719 5716 5713 5710 5708 5706 5704 5703 5700 5696 5691 5686 5683 5681 5680 5678 5676 5675 5672 5668 5665 5662 5662
5765 5764 5760 5756 5754 5753 5750 5743 5740 5739 5739 5738 5736 5734 5732 5730 5727 5723 5721 5718 5714 5710 5707 5705 5703 5700 5699 5698 5695 5692 5686 5682 5678 5675 5673 5672 5671 5669 5666 5664 5661 5659 5657
5755 5753 5749 5746 5745 5744 5741 5735 5732 5734 5732 5730 5728 5727 5725 5724 5722 5717 5714 5711 5707 5703 5700 5697 5695 5695 5694 5692 5690 5687 5684 5680 5674 5671 5669 5668 5666 5664 5661 5658 5657 5655 5652
5745 5744 5740 5737 5735 5734 5733 5728 5727 5727 5725 5722 5720 5719 5718 5717 5714 5710 5706 5703 5699 5695 5693 5691 5689 5687 5687 5685 5684 5681 5678 5674 5670 5668 5666 5663 5661 5658 5655 5653 5652 5649 5645
5735 5734 5731 5728 5727 5727 5725 5724 5722 5721 5718 5714 5712 5710 5709 5707 5705 5702 5700 5696 5692 5690 5686 5685 5683 5681 5679 5678 5676 5673 5670 5666 5663 5660 5659 5656 5654 5651 5649 5647 5645 5642 5640
5724 5723 5720 5718 5719 5719 5718 5717 5716 5713 5709 5706 5704 5702 5700 5698 5695 5693 5692 5690 5689 5687 5684 5681 5679 5676 5673 5674 5671 5666 5662 5659 5655 5652 5649 5646 5644 5642 5641 5639 5638 5636 5634
5715 5712 5711 5710 5710 5710 5709 5708 5708 5706 5701 5698 5696 5693 5691 5689 5687 5684 5682 5683 5683 5683 5681 5679 5676 5674 5672 5670 5665 5661 5658 5653 5649 5645 5641 5639 5637 5635 5634 5632 5631 5629 5628